Location: Newark
(43.6583°N, 1.6617°E)
Time: 08:07:17
(UTC+00:00)

Transit 4A - Pass Details

Date: 03 September 2019
Orbit: 866 x 978 km, 66.8° (Epoch: 16 October)

Event Time Altitude Azimuth Distance (km) Brightness Sun altitude
Rises 17:59:19 0° 279° (W) 3,677 14.2 4.0°
Reaches altitude 10° 18:03:36 10° 306° (NW) 2,724 11.6 3.2°
Maximum altitude 18:06:28 13° 333° (NNW) 2,490 10.7 2.7°
Drops below altitude 10° 18:09:20 10° 1° (N) 2,706 10.5 2.2°
Sets 18:13:34 0° 28° (NNE) 3,632 10.8 1.4°
